This is the latest recevied weather packets stored in our database for station/object OE5HCE. If no packets are shown the sender has not sent any weather packets the latest 10 day(s).
| Time | Temp. | Humidity | Pressure | Rain* | Wind** | Luminosity | Snow |
|---|---|---|---|---|---|---|---|
| 1787909457 | 25.56° C | 66% | 1010.6 hPa | 0 mm | - | 564 W/m² | - |
| 1787908554 | 25° C | 67% | 1011 hPa | 0 mm | - | 526 W/m² | - |
| 1787907648 | 24.44° C | 70% | 1011.3 hPa | 0 mm | - | 455 W/m² | - |
| 1787906762 | 23.89° C | 71% | 1011.8 hPa | 0 mm | - | 454 W/m² | - |
| 1787905839 | 23.33° C | 73% | 1011.7 hPa | 0 mm | - | 207 W/m² | - |
| 1787904935 | 22.78° C | 73% | 1011.7 hPa | 0 mm | - | 137 W/m² | - |
| 1787904031 | 22.22° C | 74% | 1011.9 hPa | 0 mm | - | 111 W/m² | - |
| 1787903130 | 21.67° C | 74% | 1012 hPa | 0 mm | - | 148 W/m² | - |
| 1787902228 | 21.11° C | 74% | 1012 hPa | 0 mm | - | 137 W/m² | - |
| 1787901328 | 20° C | 69% | 1012.2 hPa | 0 mm | - | 156 W/m² | - |
| 1787900427 | 18.89° C | 54% | 1012.3 hPa | 0 mm | - | 241 W/m² | - |
| 1787899524 | 18.89° C | 46% | 1012.6 hPa | 0 mm | - | 141 W/m² | - |
| 1787898624 | 18.33° C | 41% | 1012.7 hPa | 0 mm | - | 77 W/m² | - |
| 1787897726 | 18.33° C | 35% | 1012.6 hPa | 0 mm | - | 69 W/m² | - |
| 1787896837 | 17.78° C | 36% | 1012.5 hPa | 0 mm | - | 167 W/m² | - |
| 1787895935 | 17.22° C | 38% | 1012.7 hPa | 0 mm | - | 67 W/m² | - |
| 1787895017 | 17.22° C | 40% | 1012.5 hPa | 0 mm | - | 67 W/m² | - |
| 1787894113 | 17.22° C | 43% | 1012.2 hPa | 0 mm | - | 42 W/m² | - |
| 1787893211 | 17.22° C | 46% | 1012 hPa | 0 mm | - | 23 W/m² | - |
| 1787892311 | 17.22° C | 46% | 1011.9 hPa | 0 mm | - | 14 W/m² | - |
| 1787891405 | 17.22° C | 48% | 1012.1 hPa | 0 mm | - | 11 W/m² | - |
| 1787890506 | 17.22° C | 51% | 1012.3 hPa | 0 mm | - | 0 W/m² | - |
| 1787889601 | 17.22° C | 53% | 1012.5 hPa | 0 mm | - | 0 W/m² | - |
| 1787888759 | 17.22° C | 53% | 1012.3 hPa | 0 mm | - | 0 W/m² | - |
| 1787887857 | 17.22° C | 54% | 1012.3 hPa | 0 mm | - | 0 W/m² | - |
* Rain latest hour (hover to see other rain measurements)
** Current wind speed in m/s (hover to see current wind gust speed)